Location: Columbia
(38.9520°N, 92.3340°W)
Time: 02:15:28
(UTC-05:00)

CZ-2C R/B - Visible Passes

Search period start: 18 April 2015 00:00
Search period end: 28 April 2015 00:00
Orbit: 704 x 909 km, 98.1° (Epoch: 17 April)

Date Brightness Start Highest point End Pass type
(mag) Time Alt. Az. Time Alt. Az. Time Alt. Az.
18 Apr 5.4 02:10:46 16° NE 02:10:46 16° NE 02:12:45 10° NNE visible
18 Apr 4.4 03:51:49 25° NW 03:51:49 25° NW 03:53:56 10° NNW visible
19 Apr 4.2 03:26:45 33° NNW 03:26:45 33° NNW 03:29:24 10° NNW visible
20 Apr 4.3 03:01:40 34° NNE 03:01:40 34° NNE 03:04:37 10° N visible
20 Apr 5.1 04:42:43 10° WNW 04:42:43 10° WNW 04:42:52 10° WNW visible
21 Apr 4.8 02:36:35 26° NE 02:36:35 26° NE 02:39:35 10° N visible
21 Apr 4.6 04:17:38 18° NW 04:17:38 18° NW 04:19:20 10° NW visible
22 Apr 5.3 02:11:30 17° ENE 02:11:30 17° ENE 02:14:08 10° NNE visible
22 Apr 4.1 03:52:34 29° NW 03:52:34 29° NW 03:55:10 10° NNW visible
23 Apr 3.7 03:27:29 42° NNW 03:27:29 42° NNW 03:30:40 10° NNW visible
24 Apr 3.9 03:02:24 42° NNE 03:02:24 42° NNE 03:05:56 10° N visible
24 Apr 5.0 04:43:28 11° WNW 04:43:28 11° WNW 04:44:00 10° WNW visible
25 Apr 4.5 02:37:19 29° NE 02:37:19 29° NE 02:40:55 10° N visible
25 Apr 4.4 04:18:23 20° WNW 04:18:23 20° WNW 04:20:34 10° NW visible
26 Apr 5.1 02:12:14 18° ENE 02:12:14 18° ENE 02:15:32 10° NNE visible
26 Apr 3.8 03:53:18 34° NW 03:53:18 34° NW 03:56:26 10° NNW visible
27 Apr 5.7 01:47:10 10° ENE 01:47:48 11° ENE 01:48:58 10° NE visible
27 Apr 3.4 03:28:13 52° NNW 03:28:13 52° NNW 03:31:58 10° NNW visible
